Regional Weather Roundup
Issued by NWS Green Bay, WI

Home | Current Version | Previous Version | Graphics & Text | Print | Product List | Glossary Off
Versions: 1 2 3 4 5 6 7 8 9 10 11 12 13 14 15 16 17 18 19 20 21 22 23 24 25 26 27 28 29 30 31 32 33 34 35 36 37 38 39 40 41 42 43 44 45 46 47 48 49 50

638
ASUS43 KGRB 260500
RWRGRB

NORTH-CENTRAL AND NORTHEAST WISCONSIN REGIONAL WEATHER ROUNDUP
NATIONAL WEATHER SERVICE GREEN BAY WI
1200 AM CDT MON JUN 26 2017

WIZ005-009-010>012-018-019-260600-
NORTH CENTRAL WISCONSIN

CITY           SKY/WX    TMP DP  RH WIND       PRES   REMARKS
IRONWOOD       CLOUDY    47  46  97 NW12G20   30.05R
MANITOWISH WTR NOT AVBL
ARBOR VITAE    NOT AVBL
EAGLE RIVER    NOT AVBL
LAND O LAKES   CLOUDY    49  47  95 NW3       30.03F
RHINELANDER    MOCLDY    45  45 100 W5        30.04F
PHILLIPS       NOT AVBL
ANTIGO         NOT AVBL
TOMAHAWK       NOT AVBL
MERRILL        PTCLDY    49  49  99 CALM      30.06F
$$

WIZ013-073-260600-
NORTHEAST WISCONSIN

CITY           SKY/WX    TMP DP  RH WIND       PRES   REMARKS
IRON MOUNTAIN  CLOUDY    51  47  86 NW7       29.99S
MARINETTE      CLEAR     53  51  93 CALM      30.00S
$$

WIZ017-030-035>037-045-260600-
CENTRAL WISCONSIN

CITY           SKY/WX    TMP DP  RH WIND       PRES   REMARKS
MEDFORD        NOT AVBL
WAUSAU         PTCLDY    50  48  93 W7        30.04F
MOSINEE        NOT AVBL
MARSHFIELD     CLEAR     49  45  86 W5        30.07F
WISC RAPIDS    CLEAR     50  47  89 W5        30.09S
STEVENS POINT  NOT AVBL
WAUPACA        PTCLDY    54  52  94 W5        30.06S
SHAWANO        NOT AVBL
CLINTONVILLE   PTCLDY    52  46  82 W5        30.04F
WAUTOMA        CLEAR     51  48  89 SW5       30.08F
$$

WIZ038-039-048-051-260600-
FOX VALLEY

CITY           SKY/WX    TMP DP  RH WIND       PRES   REMARKS
NWS GREEN BAY  CLEAR     54  51  90 W8        30.03F
APPLETON       NOT AVBL
OSHKOSH        CLEAR     54  51  90 W3        30.05F
FOND DU LAC    CLEAR     55  50  83 W3        30.07S
$$

WIZ022-050-052-260600-
EAST CENTRAL WISCONSIN

CITY           SKY/WX    TMP DP  RH WIND       PRES   REMARKS
EPHRAIM        NOT AVBL
WASHINGTON ISL NOT AVBL
STURGEON BAY     N/A     56  51  84 NW14        N/A
MANITOWOC      NOT AVBL
SHEBOYGAN      CLEAR     55  54  96 W7        30.04F
$$

LMZ563-521-522-541>543-260600-
LAKESHORE

STATION/POSITION TIME  TEMP    WIND        PRES    VSBY  WAVE
                       AIR SEA DIR/SP/G                  HT/PER
                 (UTC) (F)     (DEG/KT/KT) (MB)    (MI)  (FT/S)
SHEBOYGAN LKSHOR 0400   58     260/ 10/ 11 1017.1F
KEWAUNEE LKSHORE 0424   58     290/  8/ 15 1015.6
NORTHPORT PIER   0440   59     320/  8/ 11 1015.2S
N MID LAKE BUOY  0350   57 57  340/  8/ 10 1015.5R         2/ 5
S GREEN BAY BUOY 0430   58     280/ 16/ 19 1015.8F
CHAMBERS ISLAND  0440   56     270/  4/  7 1014.9F
MENOMINEE LKSHOR 0424          280/  8/ 13 1014.9
$$




USA.gov is the U.S. government's official web portal to all federal, state and local government web resources and services.